Temp
57 56 54 54 53 54 54 54 54 54 55 55 55 56 57 58 57 57 57 57 57 58 60 58 59 59 59 60 59 58 59 60 60 59 59 59 58 57 58 58 59 59 59 58 57 57 53 53 55 58 60 60 59 59 60 60 62 63 64 64 64 64 63
55 55 54 55 54 54 54 53 54 54 54 54 54 55 56 58 59 57 56 57 57 58 58 56 56 57 58 57 57 57 58 58 59 59 58 57 58 56 56 57 58 57 57 57 58 57 54 52 52 54 57 60 59 58 59 60 62 62 61 60 63 63 62
56 54 53 53 52 52 53 52 52 53 53 54 54 54 55 55 56 57 56 56 56 57 57 55 55 55 54 54 55 56 56 56 56 57 57 56 57 56 57 57 56 56 56 57 55 56 56 57 54 54 54 55 54 58 59 59 61 62 63 62 62 64 63
54 55 54 52 53 53 53 52 52 52 52 52 52 54 53 54 55 57 55 55 57 58 56 55 54 54 53 54 54 55 54 54 54 54 54 54 55 55 56 57 56 56 55 54 55 55 56 55 55 55 56 58 58 56 58 59 61 63 64 62 62 62 62
56 56 55 54 52 52 51 52 51 52 52 52 52 52 53 54 55 53 55 54 55 54 54 54 54 54 54 54 54 54 53 53 54 54 53 53 54 54 54 55 55 56 55 55 55 55 57 55 55 54 54 55 58 57 58 56 61 62 62 62 63 62 62
56 55 55 54 52 52 51 51 51 52 52 54 52 54 54 53 54 54 54 54 54 54 53 54 53 54 54 54 54 53 52 53 52 53 53 51 53 54 52 53 54 54 54 54 55 53 52 54 54 53 53 54 56 56 57 56 57 61 62 62 63 62 62
57 56 55 55 52 52 52 52 52 52 52 51 52 52 51 52 53 53 53 52 53 53 53 53 53 54 54 54 54 53 52 52 52 52 52 51 51 52 53 54 53 53 52 52 53 53 52 52 52 54 52 50 50 54 54 55 57 59 61 62 63 63 62
58 57 56 56 54 53 52 52 50 49 52 51 51 53 52 51 51 52 54 51 52 53 53 54 54 53 54 54 54 52 52 52 52 53 52 53 53 52 52 53 53 52 52 52 53 53 54 54 53 50 50 53 51 50 52 53 54 55 55 59 61 61 61
59 58 57 57 55 55 54 54 52 51 51 51 51 51 51 52 51 51 51 51 51 52 52 52 52 53 52 53 52 53 53 54 52 52 51 52 51 51 51 52 54 52 52 52 53 53 53 52 52 50 49 51 52 51 50 51 53 54 56 58 60 60 60
58 58 57 56 56 55 55 53 52 51 51 51 52 52 51 51 51 51 51 51 52 52 52 52 51 51 52 53 52 52 52 52 53 51 51 51 50 51 51 52 52 51 51 52 53 53 52 51 51 51 53 52 49 52 48 49 50 51 56 55 56 58 59
59 58 58 57 56 56 54 53 52 53 52 52 53 55 52 52 51 54 50 52 51 52 52 52 51 51 52 51 51 51 51 52 52 51 52 51 51 51 51 51 52 51 51 51 51 51 52 52 52 52 52 51 53 53 48 48 50 50 54 54 55 55 57
58 60 59 58 57 58 57 54 54 52 52 53 54 53 52 52 52 51 51 51 51 52 51 51 51 51 51 52 52 51 51 51 52 51 51 52 52 52 52 51 51 51 51 51 51 51 51 52 52 52 52 52 51 53 52 49 49 52 52 52 53 55 54
60 60 60 58 57 57 57 55 54 53 52 54 51 52 52 52 52 52 51 52 51 50 51 50 51 50 50 51 51 51 50 51 52 51 51 51 52 51 52 52 52 52 51 52 52 51 51 51 52 52 52 52 50 50 51 49 50 51 51 52 52 54 54
59 58 58 58 57 57 56 56 55 54 53 53 53 53 53 53 52 52 52 53 53 52 52 52 50 51 51 51 50 50 50 51 52 51 52 51 51 51 52 52 51 51 51 53 51 51 52 51 51 51 51 52 51 51 52 50 50 50 52 50 51 52 53
59 58 58 57 56 56 57 57 56 55 55 54 54 55 54 54 54 53 53 53 53 53 53 53 52 52 52 52 52 52 50 51 51 51 51 51 51 51 51 52 51 50 50 51 51 53 52 52 52 52 51 52 52 51 50 50 49 49 50 50 51 52 52
56 56 56 55 56 55 55 55 56 55 55 54 55 55 55 54 54 54 54 54 53 53 53 53 52 52 52 52 52 52 51 51 52 52 52 51 51 50 51 52 52 51 51 51 50 50 50 51 52 52 50 50 50 50 50 51 49 47 49 50 48 50 50
55 55 55 55 56 54 53 54 55 55 56 56 56 54 54 54 54 54 54 54 53 53 54 53 53 53 53 53 53 53 52 51 51 52 52 52 50 51 51 51 52 51 51 51 50 50 50 50 50 51 50 49 50 49 49 50 50 49 48 48 47 49 50
54 54 55 54 54 54 54 55 56 56 55 55 56 55 55 54 54 54 55 55 55 55 54 55 55 55 54 53 53 54 53 53 52 52 52 52 53 52 51 53 53 51 51 51 49 50 49 49 50 50 50 49 49 48 48 48 48 48 47 48 47 46 47
54 55 55 54 55 55 55 56 55 55 57 57 57 56 56 55 56 55 55 56 56 56 55 55 55 55 55 54 53 53 54 54 54 53 53 52 53 53 53 53 52 52 51 52 51 49 49 49 48 49 49 49 49 47 47 46 46 46 47 47 47 48 46
54 55 55 55 54 55 55 55 55 55 55 57 55 55 55 55 55 55 55 56 56 56 56 56 54 54 54 54 54 53 53 53 54 53 53 53 53 53 54 54 53 53 53 53 52 50 49 48 49 49 49 48 48 47 46 46 46 46 47 46 45 45 47
55 55 55 55 55 55 54 54 55 54 54 53 53 54 55 56 56 55 55 56 56 56 56 55 55 54 54 54 54 54 53 53 53 53 53 53 53 53 53 54 54 54 54 53 53 52 52 51 51 50 49 49 47 47 46 45 45 46 46 45 46 46 45
55 54 54 54 53 53 54 54 54 54 54 54 54 54 54 54 54 54 54 54 54 55 55 55 56 56 55 56 54 54 54 54 54 54 53 53 53 53 53 54 54 55 54 55 52 52 52 51 51 50 49 49 48 47 46 46 45 45 45 46 45 44 45
53 53 53 53 53 53 53 52 53 53 53 54 53 53 54 53 54 54 54 54 53 53 54 55 54 51 51 56 55 55 54 54 54 54 54 53 52 52 53 53 54 56 54 53 51 47 47 47 50 52 51 50 49 47 47 47 46 46 46 46 46 45 47
51 52 52 52 51 53 53 53 52 52 52 53 52 52 52 52 53 53 53 54 53 53 53 54 49 46 45 45 52 54 54 54 54 54 54 53 53 53 53 55 55 55 54 52 52 45 45 45 46 46 46 48 49 49 47 46 46 45 47 46 44 44 45
51 51 51 52 52 53 52 51 52 52 51 51 52 52 51 52 52 51 52 52 52 53 53 51 47 45 44 43 45 53 54 54 54 53 53 53 54 54 54 54 55 55 55 55 54 50 47 44 44 43 43 43 43 44 45 48 47 45 44 45 43 44 43
49 49 50 50 50 50 51 51 50 50 50 51 50 50 51 50 50 50 50 51 51 51 52 47 44 42 41 40 40 45 52 53 53 54 53 54 54 55 54 53 53 53 54 55 54 52 52 49 44 43 43 42 41 41 39 40 42 48 46 45 45 43 43
47 47 46 46 47 49 49 49 49 48 47 46 48 48 48 48 48 48 48 49 48 47 48 44 39 40 40 39 39 41 50 51 52 52 53 53 53 53 53 53 53 52 52 54 53 52 52 51 49 48 47 47 46 43 40 39 38 40 43 46 45 45 43
45 44 44 44 45 46 46 45 45 44 45 46 47 47 46 46 45 45 44 44 45 46 46 39 37 37 39 39 39 40 48 48 50 51 50 50 50 51 51 51 52 52 51 51 51 51 51 50 49 47 46 44 44 43 43 43 43 43 43 42 44 43 43
45 44 44 45 46 46 44 46 46 44 43 42 42 43 43 43 43 43 43 43 43 44 45 40 39 38 37 38 39 44 46 47 48 48 47 46 47 48 49 50 50 50 50 50 48 44 48 50 49 47 44 42 42 42 42 42 41 42 43 43 44 44 43
46 46 45 48 49 48 47 45 43 43 44 42 44 43 42 40 39 41 41 41 41 42 42 41 39 38 37 37 41 46 46 46 45 43 42 42 43 45 47 49 49 49 48 49 45 42 42 46 49 47 44 42 41 41 40 41 40 39 39 39 39 39 38
47 46 44 48 49 47 45 45 44 45 45 43 43 43 40 38 38 39 40 41 43 42 41 40 40 38 40 38 43 46 44 43 41 42 41 41 42 43 46 50 48 46 45 44 39 40 41 47 47 46 45 43 42 41 41 40 40 39 38 38 38 38 38
45 46 45 45 45 45 44 45 44 42 43 44 44 42 41 39 38 37 38 41 45 39 38 40 40 38 39 39 43 43 44 44 43 41 41 41 41 41 42 44 45 44 44 42 38 40 41 45 46 45 45 44 43 42 41 39 40 40 39 40 38 39 39
46 45 45 44 43 44 42 42 41 42 40 41 41 39 39 38 38 37 37 37 38 38 39 39 40 38 40 40 41 44 44 45 43 41 41 42 42 41 42 42 42 38 38 38 38 38 39 41 45 43 43 42 42 42 40 38 39 38 38 38 37 37 38
50 47 46 47 45 43 44 44 42 42 41 40 40 39 39 38 37 37 36 36 36 38 40 38 40 39 41 41 41 42 44 44 42 42 41 40 41 41 41 41 42 40 38 38 38 38 38 38 39 42 43 43 42 41 37 39 39 39 38 38 38 38 38
47 48 47 46 46 46 43 43 45 43 41 41 41 39 37 38 37 37 35 35 37 35 38 42 39 40 40 41 41 41 43 43 43 42 40 39 39 40 40 41 41 39 38 38 38 38 38 38 39 42 39 37 36 36 40 39 38 38 38 37 37 37 37
45 46 45 46 48 49 44 44 43 43 42 41 41 40 38 37 38 37 37 36 35 35 35 39 40 40 38 39 39 39 39 41 40 43 42 40 40 40 41 40 41 39 37 37 37 37 37 38 39 39 36 36 36 35 37 38 38 37 36 36 36 36 36
42 42 43 44 43 45 43 43 43 43 42 42 41 40 37 36 36 37 37 37 36 36 36 36 38 39 39 38 38 39 39 39 39 41 42 41 41 42 41 41 40 37 37 37 37 37 36 37 38 36 36 35 35 36 38 37 36 36 36 36 36 36 36
MSLP
1017.98 1018.22 1018.51 1018.78 1019.07 1019.10 1019.10 1019.15 1019.07 1019.10 1019.10 1019.10 1019.10 1019.22 1019.30 1019.27 1019.27 1019.34 1019.39 1019.34 1019.34 1019.47 1019.51 1019.54 1019.59 1019.62 1019.62 1019.62 1019.62 1019.51 1019.54 1019.62 1019.78 1020.07 1020.47 1020.59 1020.62 1020.71 1020.78 1020.71 1020.62 1020.66 1020.71 1020.62 1020.59 1020.74 1021.30 1022.27 1022.22 1021.91 1021.86 1021.78 1021.78 1021.86 1021.86 1021.62 1021.39 1021.27 1021.27 1021.18 1021.22 1021.18 1021.07
1018.42 1018.59 1018.83 1018.98 1019.10 1019.22 1019.18 1019.30 1019.18 1019.22 1019.27 1019.30 1019.34 1019.39 1019.39 1019.39 1019.39 1019.42 1019.42 1019.42 1019.42 1019.47 1019.51 1019.66 1019.74 1019.78 1019.74 1019.66 1019.66 1019.62 1019.54 1019.59 1019.62 1019.83 1020.07 1020.39 1020.51 1020.47 1020.74 1020.86 1020.71 1020.74 1020.83 1020.86 1020.95 1020.86 1021.18 1021.86 1022.54 1022.42 1022.27 1022.07 1021.95 1022.15 1022.18 1021.98 1021.74 1021.62 1021.62 1021.66 1021.54 1021.39 1021.27
1018.62 1018.86 1018.95 1019.07 1019.18 1019.27 1019.22 1019.39 1019.39 1019.34 1019.42 1019.47 1019.54 1019.62 1019.62 1019.62 1019.59 1019.59 1019.59 1019.59 1019.62 1019.62 1019.66 1019.74 1019.83 1019.91 1019.98 1019.98 1019.95 1019.83 1019.78 1019.74 1019.91 1019.86 1019.91 1020.10 1020.27 1020.39 1020.47 1020.47 1020.66 1020.74 1020.66 1020.83 1020.98 1021.07 1021.15 1021.18 1021.71 1022.34 1022.39 1022.47 1022.62 1022.86 1022.51 1022.30 1022.18 1022.03 1021.86 1021.71 1021.62 1021.54 1021.54
1018.54 1018.66 1018.86 1019.07 1019.18 1019.27 1019.27 1019.42 1019.47 1019.54 1019.59 1019.66 1019.74 1019.83 1019.86 1019.86 1019.78 1019.83 1019.83 1019.83 1019.83 1019.83 1019.83 1019.86 1019.95 1020.07 1020.22 1020.27 1020.30 1020.18 1020.10 1020.07 1020.07 1020.10 1020.30 1020.54 1020.59 1020.66 1020.71 1020.62 1020.74 1020.83 1021.10 1021.15 1021.39 1021.18 1021.07 1021.47 1021.91 1022.34 1022.42 1022.39 1022.54 1022.78 1022.78 1022.74 1022.59 1022.39 1022.15 1022.10 1022.10 1022.10 1022.07
1018.03 1018.39 1018.51 1018.78 1019.03 1019.15 1019.34 1019.47 1019.66 1019.62 1019.74 1019.83 1019.91 1019.95 1020.03 1020.10 1020.07 1020.07 1020.10 1020.07 1020.07 1020.03 1020.03 1020.15 1020.22 1020.27 1020.34 1020.39 1020.42 1020.42 1020.51 1020.54 1020.51 1020.42 1020.51 1020.54 1020.71 1020.91 1020.95 1020.91 1020.95 1021.10 1021.18 1021.07 1021.22 1021.15 1020.95 1021.34 1021.59 1022.22 1022.39 1022.47 1022.51 1022.66 1022.83 1022.91 1022.83 1022.62 1022.51 1022.47 1022.47 1022.42 1022.39
1017.98 1018.22 1018.42 1018.71 1019.10 1019.10 1019.34 1019.51 1019.59 1019.59 1019.78 1019.86 1020.07 1020.15 1020.30 1020.47 1020.47 1020.22 1020.22 1020.18 1020.22 1020.27 1020.34 1020.30 1020.39 1020.39 1020.39 1020.42 1020.47 1020.51 1020.54 1020.51 1020.62 1020.51 1020.51 1020.78 1020.78 1020.78 1021.18 1021.39 1021.22 1021.07 1021.10 1021.39 1021.34 1021.27 1021.42 1021.51 1021.42 1021.74 1022.62 1022.95 1022.39 1022.78 1022.91 1023.03 1023.03 1022.86 1022.78 1022.83 1022.74 1022.74 1022.62
1017.95 1018.22 1018.51 1018.74 1019.18 1019.18 1019.39 1019.47 1019.54 1019.54 1019.71 1019.91 1020.15 1020.39 1020.62 1020.71 1020.71 1020.66 1020.54 1020.59 1020.62 1020.59 1020.54 1020.51 1020.54 1020.54 1020.51 1020.47 1020.54 1020.54 1020.62 1020.91 1020.86 1020.66 1020.83 1021.03 1021.07 1021.18 1021.22 1021.27 1021.47 1021.51 1021.59 1021.59 1021.42 1021.34 1021.34 1021.34 1021.51 1021.47 1022.03 1022.62 1022.71 1022.78 1023.07 1023.10 1023.18 1022.86 1022.98 1023.07 1023.03 1022.95 1022.91
1017.91 1018.18 1018.59 1018.86 1019.07 1019.18 1019.47 1019.59 1019.74 1019.78 1019.71 1020.03 1020.18 1020.42 1020.59 1020.71 1020.86 1020.86 1020.74 1020.78 1020.91 1020.95 1020.95 1020.86 1020.86 1020.78 1020.71 1020.62 1020.66 1020.78 1020.95 1021.03 1020.91 1020.86 1020.98 1020.91 1021.07 1021.22 1021.30 1021.34 1021.54 1021.62 1021.71 1021.71 1021.51 1021.54 1021.51 1021.51 1021.51 1021.66 1021.66 1022.15 1022.71 1022.86 1023.10 1023.39 1023.47 1023.51 1023.62 1023.47 1023.34 1023.22 1023.30
1017.95 1018.27 1018.54 1018.91 1019.10 1019.22 1019.47 1019.62 1019.74 1019.86 1019.91 1020.07 1020.34 1020.42 1020.54 1020.71 1020.86 1020.91 1020.91 1020.95 1021.10 1021.15 1021.18 1021.18 1021.15 1021.07 1020.98 1020.78 1020.91 1020.86 1020.95 1021.18 1020.86 1020.91 1021.15 1021.07 1021.18 1021.27 1021.39 1021.54 1021.42 1021.71 1021.74 1021.66 1021.62 1021.62 1021.71 1021.74 1021.78 1021.83 1021.71 1021.62 1022.03 1022.91 1023.10 1023.22 1023.47 1023.78 1023.83 1023.54 1023.51 1023.62 1023.62
1017.95 1018.18 1018.42 1018.78 1019.15 1019.42 1019.51 1019.74 1019.83 1020.03 1020.15 1020.18 1020.27 1020.39 1020.47 1020.66 1020.83 1020.91 1020.98 1021.07 1021.15 1021.27 1021.27 1021.39 1021.42 1021.42 1021.39 1021.22 1021.07 1020.98 1020.98 1021.27 1021.07 1021.22 1021.34 1021.27 1021.59 1021.54 1021.51 1021.51 1021.62 1021.71 1021.78 1021.78 1021.74 1021.74 1021.78 1021.91 1021.98 1021.98 1021.86 1021.54 1021.71 1022.18 1022.66 1023.47 1023.95 1023.91 1023.91 1024.06 1023.95 1023.95 1023.95
1017.95 1018.18 1018.39 1018.74 1019.22 1019.30 1019.59 1019.78 1019.91 1019.98 1020.10 1020.18 1020.22 1020.30 1020.42 1020.51 1020.71 1020.86 1021.03 1021.18 1021.34 1021.42 1021.47 1021.51 1021.51 1021.54 1021.54 1021.54 1021.59 1021.54 1021.66 1021.51 1021.34 1021.59 1021.54 1021.47 1021.59 1021.62 1021.71 1021.78 1021.83 1021.95 1022.22 1021.98 1022.07 1022.15 1021.98 1021.95 1021.95 1021.98 1022.07 1022.22 1021.91 1021.74 1022.42 1023.15 1023.91 1024.31 1024.06 1024.34 1024.39 1024.39 1024.22
1018.07 1018.22 1018.15 1018.51 1019.10 1019.15 1019.07 1019.62 1019.71 1019.86 1020.07 1020.07 1020.10 1020.22 1020.34 1020.51 1020.66 1020.86 1021.03 1021.22 1021.42 1021.59 1021.78 1021.83 1021.91 1021.78 1021.74 1021.62 1021.66 1021.71 1021.86 1021.74 1021.66 1021.78 1021.95 1021.66 1021.78 1021.62 1021.62 1021.74 1021.95 1022.10 1022.22 1022.27 1022.42 1022.47 1022.51 1022.39 1022.42 1022.47 1022.42 1022.22 1022.22 1022.10 1022.27 1022.71 1023.30 1024.39 1024.58 1024.43 1024.55 1024.58 1024.55
1017.66 1018.07 1017.98 1018.34 1018.98 1019.22 1019.07 1019.30 1019.74 1019.78 1019.86 1019.95 1020.03 1020.15 1020.27 1020.42 1020.66 1020.78 1021.03 1021.15 1021.30 1021.47 1021.62 1021.86 1022.03 1022.07 1022.03 1021.95 1021.95 1021.83 1021.95 1021.86 1021.83 1021.86 1021.98 1022.10 1021.95 1021.83 1021.78 1021.86 1021.95 1022.03 1022.18 1022.27 1022.47 1022.59 1022.62 1022.83 1022.78 1022.66 1022.62 1022.54 1022.66 1022.59 1022.47 1022.66 1023.07 1023.91 1024.62 1024.62 1024.70 1024.62 1024.58
1017.51 1017.95 1018.10 1018.15 1018.71 1019.15 1019.18 1019.15 1019.62 1019.83 1019.86 1019.86 1019.95 1020.03 1020.15 1020.30 1020.51 1020.74 1020.98 1021.10 1021.22 1021.34 1021.51 1021.66 1021.91 1021.98 1021.98 1021.98 1022.10 1022.15 1022.15 1022.03 1021.91 1022.07 1022.10 1022.10 1022.22 1022.07 1022.03 1022.07 1022.18 1022.34 1022.42 1022.15 1022.54 1022.78 1022.86 1023.07 1023.10 1023.15 1023.18 1022.95 1022.86 1022.98 1022.78 1022.98 1023.34 1024.10 1024.55 1024.98 1024.82 1024.79 1024.70
1017.59 1018.03 1018.15 1018.15 1018.66 1019.03 1019.47 1019.07 1019.27 1019.66 1019.74 1019.78 1019.91 1019.95 1020.10 1020.39 1020.59 1020.78 1020.91 1021.10 1021.30 1021.42 1021.51 1021.59 1021.78 1021.91 1021.86 1021.91 1021.95 1022.10 1022.07 1022.07 1022.03 1022.15 1022.18 1022.15 1022.27 1022.22 1022.18 1022.15 1022.27 1022.42 1022.54 1022.34 1022.54 1022.62 1022.86 1022.98 1022.98 1022.98 1023.22 1023.10 1023.22 1023.30 1023.39 1023.15 1023.62 1023.74 1024.19 1024.62 1024.74 1024.94 1024.79
1017.78 1018.07 1018.30 1018.30 1018.54 1018.95 1019.27 1019.51 1019.34 1019.54 1019.95 1020.15 1020.30 1020.30 1020.39 1020.51 1020.66 1020.83 1021.03 1021.27 1021.51 1021.66 1021.78 1021.83 1021.95 1021.98 1021.98 1021.95 1021.86 1021.91 1021.98 1021.98 1021.91 1021.98 1022.10 1022.18 1022.27 1022.39 1022.27 1022.22 1022.34 1022.51 1022.59 1022.42 1022.66 1022.95 1023.10 1022.98 1023.15 1022.91 1023.34 1023.47 1023.34 1023.54 1023.59 1023.34 1023.42 1024.03 1024.03 1024.62 1025.15 1024.91 1024.91
1017.78 1018.10 1018.34 1018.34 1018.42 1018.74 1019.15 1019.39 1019.30 1019.34 1019.66 1019.91 1020.10 1020.34 1020.42 1020.54 1020.71 1020.86 1020.98 1021.18 1021.42 1021.62 1021.83 1022.10 1022.30 1022.42 1022.22 1022.03 1021.95 1021.91 1021.95 1021.98 1021.95 1021.86 1021.86 1021.98 1022.18 1022.30 1022.27 1022.27 1022.34 1022.47 1022.47 1022.42 1022.66 1022.86 1023.18 1023.18 1022.98 1023.10 1023.22 1023.51 1023.42 1023.51 1023.62 1023.54 1023.51 1023.66 1024.27 1024.10 1025.06 1025.03 1025.03
1017.91 1018.15 1018.39 1018.47 1018.51 1018.74 1019.07 1019.15 1019.07 1019.15 1019.51 1019.74 1019.86 1020.10 1020.34 1020.47 1020.74 1020.95 1020.98 1021.07 1021.30 1021.54 1021.66 1021.62 1021.66 1021.98 1022.54 1022.86 1022.54 1022.10 1021.95 1021.91 1021.91 1021.86 1021.91 1021.91 1021.95 1022.03 1022.15 1022.10 1022.22 1022.51 1022.51 1022.42 1022.74 1022.74 1022.98 1022.86 1023.27 1023.10 1023.18 1023.54 1023.54 1023.78 1023.83 1023.74 1023.74 1023.83 1023.86 1024.03 1024.70 1025.15 1025.19
1018.22 1018.22 1018.30 1018.39 1018.42 1018.54 1018.74 1018.83 1018.95 1019.18 1019.30 1019.42 1019.66 1019.91 1020.18 1020.54 1020.74 1020.98 1021.27 1021.54 1021.74 1021.91 1021.86 1021.71 1021.47 1021.54 1021.78 1022.27 1022.86 1022.74 1022.18 1021.95 1021.83 1021.95 1022.15 1022.42 1022.39 1022.18 1021.95 1021.98 1022.10 1022.34 1022.42 1022.30 1022.51 1022.74 1022.91 1022.91 1023.30 1023.27 1023.34 1023.59 1023.78 1023.91 1023.74 1024.06 1024.15 1024.06 1024.06 1024.43 1024.46 1024.70 1025.15
1017.86 1017.95 1018.03 1018.10 1018.30 1018.51 1018.71 1018.78 1018.74 1019.10 1019.34 1019.30 1019.47 1019.71 1019.98 1020.22 1020.47 1020.66 1020.95 1020.95 1021.15 1021.34 1021.54 1021.66 1021.71 1021.74 1021.66 1021.74 1022.15 1022.54 1022.39 1021.98 1021.83 1021.95 1022.07 1022.30 1022.51 1022.51 1022.18 1021.98 1022.03 1022.18 1022.15 1022.18 1022.30 1022.47 1022.59 1022.74 1022.86 1022.98 1023.15 1023.39 1023.83 1023.51 1023.59 1023.86 1024.06 1023.95 1023.98 1024.19 1024.74 1024.94 1024.86
1017.71 1017.95 1018.18 1018.34 1018.27 1018.42 1018.74 1018.78 1018.83 1019.07 1019.39 1019.59 1019.71 1019.71 1019.78 1020.03 1020.39 1020.66 1020.51 1020.39 1020.54 1020.86 1021.18 1021.34 1021.34 1021.42 1021.66 1021.86 1022.03 1022.18 1022.39 1022.07 1021.83 1021.78 1021.91 1022.07 1022.15 1022.15 1022.07 1021.98 1021.98 1022.10 1022.15 1022.18 1022.27 1022.51 1022.71 1022.62 1022.95 1022.78 1023.22 1023.10 1023.42 1023.47 1023.62 1023.91 1023.95 1023.91 1023.86 1024.03 1024.31 1024.46 1024.94
1017.66 1017.86 1018.15 1018.42 1018.59 1018.74 1018.83 1018.78 1018.86 1019.27 1019.54 1019.51 1019.62 1019.91 1020.27 1020.47 1020.34 1020.47 1020.74 1020.83 1020.74 1020.71 1020.74 1020.83 1021.03 1021.22 1021.34 1021.47 1021.66 1021.78 1021.91 1021.78 1021.66 1021.66 1021.71 1021.74 1021.86 1021.95 1021.98 1022.03 1022.10 1022.03 1022.07 1021.98 1022.15 1022.30 1022.27 1022.30 1022.47 1022.62 1023.15 1023.15 1023.18 1023.27 1023.66 1023.78 1023.86 1023.86 1023.95 1023.83 1024.10 1024.79 1024.51
1017.86 1017.98 1018.10 1018.18 1018.34 1018.47 1018.62 1018.83 1018.98 1019.15 1019.07 1019.18 1019.71 1020.10 1020.15 1020.27 1020.59 1020.42 1020.30 1020.39 1020.42 1020.54 1020.74 1020.83 1020.83 1020.91 1020.98 1021.07 1021.30 1021.51 1021.54 1021.47 1021.47 1021.54 1021.62 1021.66 1021.83 1021.86 1021.71 1021.78 1021.78 1021.83 1021.98 1022.03 1021.98 1022.10 1022.15 1022.22 1022.22 1022.27 1022.54 1023.07 1023.03 1023.18 1023.34 1023.54 1023.71 1023.86 1023.86 1023.78 1023.86 1023.91 1023.62
1018.03 1018.07 1018.18 1018.39 1018.42 1018.39 1018.34 1018.78 1019.10 1019.18 1019.03 1019.27 1019.66 1019.91 1020.10 1020.15 1020.10 1020.22 1020.27 1020.30 1020.42 1020.54 1020.59 1020.66 1020.71 1020.74 1020.74 1020.95 1021.18 1021.27 1021.18 1021.15 1021.30 1021.42 1021.54 1021.62 1021.59 1021.62 1021.66 1021.62 1021.66 1021.66 1021.71 1021.83 1021.98 1022.15 1022.18 1022.18 1022.27 1022.34 1022.51 1022.66 1022.78 1022.86 1023.27 1023.51 1023.62 1023.83 1023.86 1023.98 1024.34 1024.31 1024.06
1018.18 1018.18 1018.30 1018.22 1018.07 1017.91 1018.39 1018.74 1019.03 1019.22 1019.27 1019.18 1019.39 1019.74 1020.03 1020.15 1020.22 1020.39 1020.42 1020.47 1020.47 1020.39 1020.34 1020.42 1020.59 1020.54 1020.59 1020.78 1020.98 1020.91 1020.91 1020.95 1021.03 1021.18 1021.30 1021.39 1021.39 1021.47 1021.47 1021.47 1021.42 1021.47 1021.47 1021.47 1021.66 1021.98 1022.22 1022.22 1022.18 1022.27 1022.47 1022.66 1022.91 1023.07 1023.10 1023.18 1023.39 1023.78 1023.98 1023.98 1024.15 1024.19 1024.43
1017.83 1017.95 1017.98 1018.07 1018.03 1017.83 1017.95 1018.34 1018.47 1018.71 1019.10 1019.54 1019.78 1019.95 1020.15 1020.07 1019.95 1020.18 1020.22 1020.18 1020.15 1020.22 1020.30 1020.42 1020.59 1020.74 1020.83 1020.83 1020.78 1020.83 1020.78 1020.83 1020.91 1020.95 1021.07 1021.10 1021.15 1021.18 1021.27 1021.34 1021.34 1021.39 1021.39 1021.47 1021.62 1021.91 1022.10 1022.39 1022.39 1022.39 1022.59 1022.98 1023.30 1023.34 1023.47 1023.59 1023.51 1023.39 1023.66 1023.91 1023.91 1024.15 1024.39
1017.62 1017.71 1017.91 1017.98 1017.98 1017.91 1018.03 1018.03 1018.47 1018.95 1019.15 1019.22 1019.03 1019.15 1019.34 1019.54 1019.78 1019.86 1020.03 1020.10 1020.27 1020.47 1020.62 1020.91 1020.95 1020.86 1020.74 1020.74 1020.83 1020.91 1020.71 1020.78 1020.86 1020.91 1020.95 1021.03 1021.10 1021.15 1021.15 1021.22 1021.27 1021.27 1021.39 1021.42 1021.59 1021.83 1021.98 1022.07 1022.34 1022.74 1023.03 1023.22 1023.51 1023.71 1023.86 1023.91 1023.83 1023.86 1024.03 1023.98 1024.06 1024.10 1024.67
1017.51 1017.74 1017.86 1017.98 1018.15 1018.18 1018.22 1018.54 1018.71 1018.83 1018.74 1018.71 1018.86 1019.10 1019.42 1019.78 1020.15 1020.39 1020.42 1020.47 1020.18 1020.10 1020.34 1020.71 1020.62 1020.66 1020.62 1020.59 1020.71 1020.95 1020.95 1020.95 1020.95 1021.03 1021.18 1021.22 1021.22 1021.18 1021.18 1021.22 1021.22 1021.18 1021.30 1021.42 1021.54 1021.62 1021.83 1022.07 1022.39 1022.83 1023.18 1023.47 1023.71 1023.91 1023.95 1023.98 1023.98 1024.06 1024.22 1024.39 1024.43 1024.51 1024.67
1017.74 1018.03 1018.15 1018.27 1018.22 1018.22 1018.39 1018.34 1018.39 1018.83 1019.03 1019.34 1019.59 1019.66 1019.86 1019.74 1019.62 1019.71 1019.98 1019.98 1019.95 1020.03 1020.47 1020.74 1020.66 1020.71 1020.78 1020.71 1020.91 1021.07 1021.15 1021.07 1021.03 1021.15 1021.18 1021.27 1021.22 1021.18 1021.15 1021.15 1021.15 1021.15 1021.27 1021.39 1021.59 1021.74 1021.78 1021.95 1022.27 1022.74 1023.18 1023.62 1023.98 1024.27 1024.39 1024.51 1024.31 1024.27 1024.34 1024.51 1024.58 1024.67 1024.79
1017.91 1017.78 1017.91 1017.95 1017.98 1018.10 1018.15 1018.30 1018.51 1018.86 1018.66 1018.95 1018.98 1019.18 1019.39 1019.74 1020.18 1020.03 1020.10 1020.30 1020.15 1020.30 1020.59 1020.95 1020.86 1020.78 1020.78 1020.98 1020.98 1021.10 1021.22 1021.27 1021.27 1021.27 1021.47 1021.62 1021.62 1021.47 1021.34 1021.22 1021.18 1021.22 1021.42 1021.54 1021.71 1021.86 1022.07 1022.10 1022.39 1022.78 1023.18 1023.59 1024.03 1024.15 1024.55 1024.74 1024.70 1024.67 1024.74 1024.86 1024.91 1024.91 1024.94
1018.03 1018.15 1018.18 1017.86 1017.98 1018.10 1018.22 1018.39 1018.42 1018.83 1018.62 1018.95 1019.15 1019.42 1019.98 1020.34 1020.86 1020.83 1020.22 1020.03 1020.15 1019.95 1020.30 1020.98 1021.10 1020.98 1020.86 1021.03 1020.98 1020.95 1021.07 1021.07 1021.22 1021.39 1021.62 1021.86 1021.91 1021.78 1021.66 1021.42 1021.42 1021.51 1021.66 1021.91 1022.03 1022.03 1022.18 1022.15 1022.39 1022.74 1022.98 1023.30 1023.66 1023.91 1024.39 1024.74 1024.74 1024.82 1024.98 1024.98 1025.03 1024.98 1024.94
1018.30 1018.18 1018.30 1018.42 1018.47 1018.42 1018.59 1018.74 1018.78 1019.07 1018.86 1019.03 1019.27 1019.83 1020.07 1019.83 1020.42 1020.83 1020.91 1020.66 1020.62 1020.30 1020.39 1020.54 1020.62 1020.62 1020.78 1020.91 1020.95 1020.91 1020.86 1020.86 1020.95 1021.30 1021.51 1021.78 1022.15 1022.15 1022.10 1022.03 1021.91 1021.78 1021.91 1022.10 1022.15 1022.27 1022.34 1022.34 1022.51 1022.74 1022.95 1023.18 1023.47 1023.66 1024.10 1024.43 1024.43 1024.58 1024.70 1024.74 1024.74 1024.70 1024.79
1018.10 1018.18 1018.27 1018.30 1018.39 1018.42 1018.71 1018.91 1019.07 1018.95 1019.10 1019.15 1019.30 1019.86 1019.91 1019.91 1019.91 1020.66 1021.27 1021.03 1020.86 1020.91 1020.59 1020.62 1020.74 1020.66 1020.66 1020.86 1020.91 1020.86 1020.86 1020.66 1020.78 1021.39 1021.74 1021.74 1021.91 1022.47 1022.54 1022.54 1022.54 1022.47 1022.39 1022.39 1022.47 1022.54 1022.62 1022.62 1022.66 1022.98 1023.07 1023.07 1023.30 1023.47 1024.22 1024.39 1024.46 1024.58 1024.67 1024.74 1024.74 1024.94 1024.91
1017.83 1017.98 1018.07 1018.03 1018.30 1018.59 1018.66 1018.51 1018.66 1018.71 1018.83 1019.27 1019.47 1019.71 1019.78 1020.03 1020.10 1020.54 1021.10 1021.10 1020.91 1020.86 1020.95 1020.59 1020.59 1020.59 1020.74 1020.86 1020.91 1020.83 1020.83 1020.78 1021.18 1021.62 1021.98 1022.34 1022.54 1022.62 1022.78 1022.91 1022.98 1022.95 1022.83 1022.86 1022.91 1022.95 1023.03 1023.10 1023.22 1023.34 1023.47 1023.51 1023.71 1023.98 1024.34 1024.34 1024.58 1024.70 1024.67 1024.74 1024.82 1024.91 1024.86
1018.07 1017.95 1017.86 1017.95 1017.95 1017.95 1018.30 1018.51 1018.42 1018.66 1018.95 1019.03 1019.10 1019.39 1019.83 1019.98 1020.03 1020.30 1020.86 1021.03 1021.03 1021.03 1021.22 1021.07 1020.62 1020.71 1020.78 1020.91 1020.98 1021.03 1020.95 1021.27 1021.62 1021.71 1022.27 1022.74 1022.98 1023.03 1023.07 1023.15 1023.22 1023.27 1023.15 1023.18 1023.27 1023.39 1023.51 1023.59 1023.66 1023.74 1024.06 1024.15 1024.27 1024.31 1024.43 1024.58 1024.67 1024.62 1024.67 1024.79 1024.91 1024.91 1024.82
1018.22 1018.27 1018.34 1018.30 1017.66 1017.66 1018.15 1018.18 1018.47 1018.59 1018.66 1018.83 1018.98 1019.22 1019.54 1019.86 1019.78 1019.95 1020.47 1021.03 1021.47 1021.62 1021.71 1021.59 1021.03 1020.51 1020.74 1020.91 1021.03 1021.15 1021.22 1021.59 1021.91 1021.95 1021.83 1022.47 1022.91 1023.10 1023.30 1023.34 1023.42 1023.39 1023.34 1023.42 1023.54 1023.66 1023.74 1023.83 1023.91 1024.15 1024.27 1024.31 1024.39 1024.46 1024.55 1024.62 1024.79 1024.91 1024.98 1025.06 1025.10 1024.94 1024.86
1018.66 1018.62 1018.30 1018.22 1018.62 1018.39 1018.07 1018.22 1018.34 1018.47 1018.54 1018.71 1018.98 1019.18 1019.62 1019.95 1019.86 1019.71 1020.03 1021.10 1021.51 1021.66 1021.83 1021.86 1021.71 1020.91 1020.74 1020.91 1021.07 1021.18 1021.34 1021.59 1021.78 1022.03 1022.30 1022.59 1023.03 1023.22 1023.42 1023.47 1023.47 1023.51 1023.51 1023.54 1023.66 1023.83 1023.98 1024.10 1024.22 1024.31 1024.39 1024.51 1024.62 1024.74 1024.86 1024.91 1024.94 1025.06 1025.06 1024.98 1024.86 1024.86 1024.79
Wind_Speed
5 5 3 3 2 2 4 3 3 4 4 4 4 3 2 3 4 5 4 3 4 3 3 3 3 3 3 2 1 2 3 3 5 5 5 4 3 2 1 1 4 3 2 3 3 3 5 4 1 5 3 6 8 8 6 6 6 5 5 4 3 2 2
3 4 3 3 3 2 5 3 4 4 5 4 4 3 2 2 2 3 3 4 4 3 3 4 4 3 3 4 3 3 4 3 3 4 5 4 4 4 4 2 3 4 4 4 3 4 3 4 3 3 3 2 8 8 8 7 8 8 8 7 6 6 5
5 4 4 4 3 2 4 3 3 5 4 5 4 3 3 3 3 3 4 4 4 4 4 5 5 5 4 4 3 3 3 5 4 4 3 3 3 3 4 4 1 3 4 4 5 3 5 3 6 4 2 6 9 5 5 8 8 7 7 7 8 8 7
6 7 6 3 4 3 4 3 4 3 4 5 4 3 3 3 3 3 4 4 4 4 5 5 5 5 4 4 4 5 6 6 5 6 6 5 4 5 4 3 3 4 2 1 2 3 4 4 6 4 2 3 6 7 5 6 6 6 7 8 8 7 8
9 7 8 7 5 5 4 3 1 4 4 4 4 3 4 3 3 4 3 4 4 4 5 4 5 5 4 5 5 5 5 5 5 6 6 6 7 6 5 3 4 5 4 4 2 1 5 5 6 4 3 1 4 3 1 2 5 7 8 8 7 7 6
7 7 6 6 4 6 5 3 3 4 3 4 3 2 2 3 2 3 3 4 3 3 4 4 4 5 5 5 5 5 5 5 5 6 7 6 6 7 6 5 5 5 4 2 3 4 3 4 6 6 2 1 3 2 3 2 3 5 7 8 7 7 7
6 6 5 6 4 4 5 4 4 5 5 3 2 2 3 3 3 3 2 3 2 2 2 3 4 3 4 6 5 6 5 4 5 7 7 7 7 6 6 7 6 5 4 3 4 5 4 5 4 6 5 3 3 3 2 4 4 3 5 7 7 7 7
7 6 5 5 6 5 4 4 2 3 5 3 3 1 3 4 3 2 3 4 3 3 2 3 3 3 4 5 5 5 5 4 5 6 6 7 7 7 6 7 6 5 5 4 5 5 5 5 5 5 5 7 4 4 4 3 4 8 1 3 6 8 7
5 5 5 4 4 4 5 4 4 3 3 3 1 2 3 3 3 3 3 4 3 3 3 3 3 3 3 5 4 4 5 1 6 6 5 6 6 7 7 5 7 6 4 5 5 5 5 5 5 4 5 5 7 4 2 5 5 5 5 4 4 7 7
6 7 7 5 5 3 4 3 4 3 2 2 3 2 3 3 3 3 3 2 2 2 3 3 3 3 3 3 4 4 5 3 5 6 4 6 5 5 6 6 6 5 5 5 5 5 5 5 4 4 3 5 6 7 3 4 4 3 5 5 4 6 7
6 6 6 6 5 6 5 3 3 4 2 2 3 3 3 2 2 3 3 2 2 2 2 3 3 3 4 4 4 5 3 3 6 4 4 6 5 5 5 6 5 5 4 5 5 4 5 5 5 5 5 4 4 7 4 5 3 1 3 4 4 4 5
4 5 6 7 6 5 5 5 4 4 4 3 3 3 3 2 2 2 3 3 3 3 4 4 3 3 3 4 4 4 4 4 5 5 3 4 3 5 6 6 5 5 5 6 5 5 4 5 5 5 5 5 5 6 7 5 5 0 1 4 4 3 4
6 6 7 8 5 5 6 5 3 4 4 4 3 3 2 2 1 1 2 2 3 3 2 3 3 3 4 4 3 4 3 4 5 4 3 3 3 5 6 6 5 5 5 5 5 5 6 5 5 6 5 6 5 4 5 5 6 4 0 2 2 4 5
5 5 5 8 5 3 2 5 3 2 3 4 4 3 3 3 3 2 2 1 1 1 1 1 1 1 2 3 3 3 2 3 5 3 3 3 3 4 5 5 4 3 2 6 5 5 6 5 5 6 4 6 6 4 5 5 5 4 2 1 2 3 4
4 3 4 6 5 1 4 4 5 4 3 3 4 5 3 2 2 2 1 1 1 1 1 2 2 2 2 2 2 2 2 3 4 3 3 4 2 3 4 5 4 4 3 6 5 5 5 5 6 6 5 6 5 4 1 4 3 3 2 2 3 3 3
3 4 4 5 6 5 3 0 3 4 0 1 0 1 2 2 2 1 0 1 2 2 2 1 1 2 2 3 3 3 3 4 4 4 3 4 4 3 4 4 4 4 3 6 5 4 4 5 4 6 5 4 6 4 3 3 4 3 4 2 1 3 4
5 5 5 5 6 6 5 4 4 4 3 3 2 2 3 3 3 2 1 1 1 1 2 3 5 4 4 4 4 5 4 4 4 5 6 6 5 4 4 4 4 4 4 6 5 4 4 4 5 6 6 4 6 5 4 5 4 4 2 4 2 3 2
5 6 6 5 5 5 5 5 5 7 6 4 3 3 3 4 4 2 1 1 1 1 2 2 1 1 4 6 5 4 5 5 5 5 5 5 5 6 6 6 6 5 5 6 4 5 4 6 4 5 6 4 4 4 4 4 4 4 5 5 2 0 2
3 6 7 7 7 7 7 5 5 4 6 5 4 4 3 2 2 2 2 3 3 3 2 1 1 2 2 3 6 7 5 5 6 5 4 4 4 5 6 6 6 6 6 6 6 5 5 6 4 5 5 4 3 4 5 4 4 5 7 5 4 3 1
8 8 8 8 6 5 6 5 5 5 5 5 4 2 2 3 4 5 4 1 5 5 4 4 2 2 2 3 6 7 7 6 6 5 6 7 7 7 6 5 5 6 7 6 7 7 7 6 6 6 6 6 4 5 5 4 3 5 5 4 2 2 2
6 6 5 5 7 7 5 5 5 5 5 4 4 4 5 4 3 6 6 5 5 4 4 4 4 4 4 5 6 7 8 7 6 6 6 6 6 6 6 6 6 6 6 6 6 6 6 6 4 5 5 6 5 5 5 4 3 4 4 3 2 2 1
4 5 6 6 5 5 5 5 5 5 4 3 4 3 3 1 0 2 2 3 4 4 5 5 4 5 6 6 6 8 8 7 7 7 6 6 5 5 5 5 5 5 7 9 10 8 8 8 6 5 4 5 6 6 5 3 3 3 2 3 2 1 1
2 3 5 6 7 6 6 5 5 4 5 4 5 7 6 3 4 5 3 4 4 5 5 5 7 10 9 6 6 6 6 6 6 6 6 6 5 6 7 7 9 9 7 9 9 10 11 10 8 6 7 5 6 6 5 4 3 2 2 3 2 2 4
2 3 3 3 3 3 5 5 5 3 4 2 5 5 4 3 3 2 3 4 4 5 5 5 8 9 8 9 7 5 5 5 5 5 5 6 7 7 7 7 6 7 7 7 7 9 9 11 9 8 10 9 8 8 6 4 3 3 2 1 1 0 1
5 4 4 5 6 7 4 4 5 4 4 3 2 3 4 5 4 4 4 4 5 6 6 5 7 8 8 8 6 5 5 5 5 5 6 6 6 6 7 7 6 5 5 7 7 8 9 10 10 10 11 9 7 6 5 5 5 3 3 3 2 3 2
4 4 5 5 4 3 1 1 2 4 5 5 5 5 4 3 2 1 1 2 3 4 4 5 6 7 8 7 6 4 4 4 5 5 5 6 6 6 5 5 5 5 5 6 6 6 7 6 5 8 9 9 8 7 6 5 4 4 5 4 4 3 4
4 4 3 3 3 2 1 2 1 1 2 3 3 3 2 2 2 1 1 0 3 4 4 3 4 5 6 5 5 4 4 5 5 6 6 5 5 5 5 5 5 5 5 5 6 7 7 7 7 6 6 5 5 5 5 5 7 7 4 3 3 2 2
3 3 3 3 3 3 3 1 2 3 3 4 5 5 5 4 3 4 3 4 1 3 3 6 6 6 6 5 3 3 3 3 4 4 2 3 4 5 5 5 6 6 5 5 5 8 8 8 7 6 6 6 4 3 3 3 2 4 4 3 3 4 5
4 4 4 4 5 5 4 5 5 4 5 5 4 6 4 5 5 5 4 4 5 5 3 6 8 7 4 4 2 2 2 2 2 1 1 3 4 4 5 5 5 5 5 5 5 9 7 8 9 9 7 5 4 3 4 3 2 4 4 4 4 4 4
3 6 5 5 5 5 5 3 3 2 6 4 5 4 4 5 3 5 4 2 4 2 0 4 7 7 4 2 3 2 2 2 3 3 3 3 3 3 3 4 4 4 3 3 5 8 9 9 7 7 6 5 3 4 3 2 5 6 5 4 3 4 4
0 0 1 5 6 5 4 3 4 4 7 6 4 5 6 5 3 2 3 3 2 4 2 2 3 3 1 4 4 4 4 5 4 4 4 5 4 5 6 7 4 5 5 4 6 9 9 8 7 7 7 7 6 5 3 1 1 2 3 3 4 2 2
2 1 3 3 1 2 3 3 3 3 4 6 5 5 4 6 4 3 2 2 3 4 2 4 6 6 3 5 5 4 5 5 5 4 4 5 5 5 6 7 8 6 6 7 9 8 8 6 6 5 5 5 5 4 3 3 4 3 1 1 1 4 1
0 1 2 2 2 2 2 3 4 5 4 5 6 4 3 5 6 3 1 2 3 3 3 2 3 5 3 4 5 5 4 5 5 5 4 4 6 6 6 6 7 10 10 11 10 10 9 8 7 5 4 4 4 3 3 3 3 3 2 1 2 1 3
4 4 3 2 2 2 4 5 5 5 5 5 5 4 4 4 5 4 3 3 3 3 2 2 3 4 3 4 6 6 4 4 6 6 5 5 5 6 5 6 5 8 11 12 11 11 11 10 7 5 4 4 2 3 4 3 2 2 2 1 2 3 3
3 3 2 4 3 3 2 3 5 5 5 5 5 4 3 4 4 4 3 4 3 4 4 2 3 5 4 4 5 5 4 4 6 8 7 6 5 5 5 5 5 7 11 11 10 10 10 9 8 5 5 6 6 6 3 2 2 2 2 2 2 3 3
4 3 2 3 5 6 4 6 5 6 7 6 6 5 5 4 4 3 3 4 5 6 6 5 2 5 6 7 7 7 8 7 7 5 8 7 6 6 4 5 5 7 9 10 9 9 9 9 7 5 7 6 6 6 4 3 3 2 2 2 2 3 3
2 2 2 2 3 3 6 5 6 6 7 8 7 6 5 4 4 4 3 4 4 4 4 4 5 4 7 8 9 10 11 10 9 6 7 8 6 5 4 4 4 7 8 9 9 8 8 8 6 8 8 7 6 5 3 2 2 1 1 2 3 3 4
Wind_Direction
148 152 143 116 92 115 82 49 54 43 38 50 62 62 65 113 122 119 119 122 114 108 109 105 124 129 123 107 84 85 121 152 149 138 135 140 149 193 340 19 77 73 70 70 103 154 136 123 334 350 39 50 45 33 15 12 27 28 27 21 351 314 292
103 108 99 68 77 65 86 41 59 46 48 44 48 51 51 76 85 114 111 95 87 75 79 86 72 76 109 130 125 111 131 96 111 132 135 155 143 198 112 339 37 62 61 61 78 78 125 121 115 128 78 357 58 35 23 29 47 48 48 40 34 28 19
115 94 95 94 70 69 88 56 63 60 42 51 36 36 51 49 70 75 79 82 84 81 76 86 86 76 59 62 50 84 82 82 40 87 114 144 163 132 130 164 120 64 41 28 31 63 62 73 132 124 55 77 71 29 20 35 38 46 44 39 38 32 30
144 138 127 109 106 89 97 63 64 60 53 48 34 31 41 44 72 69 81 85 75 81 85 80 79 88 69 73 68 65 63 75 74 76 70 56 72 71 64 107 125 102 107 128 106 27 121 111 90 86 86 38 106 95 45 32 38 43 48 47 42 38 34
153 153 151 156 153 135 130 117 47 73 47 39 37 32 33 23 59 59 64 75 85 92 90 98 97 97 95 87 71 75 75 73 82 85 80 79 80 80 67 70 79 105 127 115 164 102 90 106 114 110 99 134 79 62 45 350 46 50 46 46 42 39 33
150 150 152 146 158 139 138 125 115 110 73 70 34 42 18 3 359 79 81 87 86 87 109 101 104 109 108 99 99 87 85 87 95 97 87 86 95 93 101 67 75 61 68 69 114 115 78 99 119 120 126 26 138 100 27 24 26 42 48 43 40 38 33
154 151 153 146 156 141 143 152 162 148 129 134 88 44 356 353 356 353 47 49 48 65 89 104 113 115 112 109 109 104 103 116 109 99 105 106 92 100 106 96 83 88 87 84 104 98 122 105 95 137 141 61 73 95 7 36 357 70 38 37 34 38 36
154 150 145 142 150 144 146 144 166 142 132 157 132 98 46 38 13 9 51 54 31 29 34 54 56 74 93 102 102 110 106 126 108 106 107 110 107 108 98 109 110 88 92 95 96 91 99 95 130 160 132 125 68 44 57 37 40 54 324 54 27 34 30
138 126 125 137 150 146 149 155 169 170 148 129 128 83 65 72 40 18 42 51 36 29 36 43 41 59 68 93 84 86 90 69 99 91 98 91 93 93 101 107 92 87 85 86 85 93 85 107 103 107 116 111 129 108 34 54 30 55 14 47 39 37 24
154 156 157 165 146 130 140 151 146 169 139 108 103 99 94 73 75 74 58 53 47 41 55 46 46 38 33 54 84 91 92 64 86 88 86 86 81 86 76 76 91 92 73 77 74 78 95 92 94 96 99 134 143 129 129 76 23 56 38 11 50 20 20
159 158 155 150 145 154 151 152 138 134 151 134 122 117 107 102 74 77 77 55 35 45 50 47 62 64 65 53 43 45 32 62 84 65 70 98 86 84 81 65 69 71 46 60 59 48 65 80 78 73 77 83 107 125 149 121 114 255 67 38 48 21 12
171 184 167 145 149 189 163 172 169 153 143 136 122 116 115 102 85 73 74 57 47 33 27 25 21 38 60 79 57 60 27 52 74 64 25 79 78 85 84 80 78 81 81 85 78 68 58 70 76 77 73 71 57 102 115 126 117 31 140 52 20 19 20
170 201 169 141 151 221 173 153 159 155 159 141 146 139 130 129 110 94 71 85 77 70 59 35 37 25 34 50 50 67 36 65 77 79 61 35 70 89 93 88 88 105 103 94 85 84 88 75 91 84 74 72 59 65 91 91 104 115 348 76 38 351 18
177 178 164 134 142 219 219 141 160 160 135 161 162 162 164 162 148 139 116 102 104 96 90 85 64 82 67 75 57 68 46 69 102 80 96 67 52 95 98 102 93 72 59 91 95 93 87 89 81 73 68 78 73 51 91 102 106 115 117 148 34 16 356
153 159 177 129 106 87 285 213 148 141 187 195 176 182 173 147 121 116 116 130 151 152 157 167 150 124 127 119 97 92 106 104 107 100 80 114 77 82 119 110 84 74 69 103 110 102 111 108 104 91 65 84 82 61 360 110 95 120 148 337 31 7 14
143 155 142 120 124 136 140 126 114 119 116 319 21 87 102 104 102 113 73 20 2 337 336 312 110 144 159 176 183 186 174 164 157 156 153 171 166 126 114 124 136 119 111 89 81 100 104 98 92 92 99 97 98 82 39 76 119 116 129 128 283 21 13
146 149 150 159 156 141 145 147 136 130 147 151 161 110 112 109 101 94 85 75 86 81 50 21 350 329 280 216 211 216 204 201 198 184 183 177 172 168 162 148 182 152 124 115 118 106 91 99 105 112 106 97 102 97 76 65 72 131 149 106 28 52 359
157 150 158 160 149 129 130 151 156 145 139 146 167 138 125 119 114 112 119 147 166 129 129 135 130 2 336 315 287 248 223 217 220 216 210 200 186 177 175 185 187 167 143 128 141 128 133 115 120 120 119 123 114 119 89 86 85 100 118 104 102 243 332
149 159 162 162 159 155 154 158 135 119 156 176 174 161 138 103 105 109 83 31 10 2 323 288 188 155 174 237 280 277 251 230 228 217 210 277 260 216 193 196 186 172 168 159 173 162 148 140 131 120 124 129 126 114 107 93 101 104 103 116 122 95 355
172 175 173 165 154 152 167 166 147 170 201 192 183 162 108 134 156 143 126 208 262 247 236 248 278 262 240 219 223 245 257 246 244 226 204 200 224 237 228 209 192 188 190 183 167 171 165 155 155 159 156 148 144 121 108 117 112 97 108 123 105 85 98
173 164 155 152 158 164 161 153 144 147 142 130 125 158 181 181 186 155 183 199 238 258 258 252 248 242 225 231 235 238 240 240 237 242 228 214 214 222 225 220 210 205 199 191 173 171 164 160 158 149 172 134 142 124 120 134 110 110 115 102 102 124 74
172 144 145 140 137 152 158 143 136 107 95 137 147 87 23 46 7 253 125 172 213 233 237 243 239 228 240 240 219 233 232 232 230 237 242 235 226 223 235 245 255 239 197 202 193 182 185 169 156 159 177 148 139 123 122 93 107 100 79 92 105 133 141
156 151 151 161 162 160 155 147 143 137 183 174 135 140 207 215 184 210 199 198 201 231 237 240 242 243 240 242 223 224 226 230 228 230 237 246 244 231 225 219 230 233 224 229 215 191 186 180 175 171 163 154 128 118 116 121 118 103 74 52 35 46 12
158 177 163 134 139 164 184 139 129 153 226 169 141 155 163 208 235 228 224 245 241 232 232 228 243 245 248 243 239 229 224 236 230 229 227 227 233 235 243 246 242 230 217 214 215 206 191 187 182 153 151 158 159 146 141 134 149 135 136 189 193 116 188
164 169 156 170 189 207 150 133 147 163 180 220 194 145 182 210 214 200 210 225 248 256 264 269 270 276 263 247 221 221 221 229 225 226 223 224 232 228 234 240 243 236 222 215 192 185 195 190 170 155 152 152 139 119 136 158 155 150 169 169 209 225 179
165 171 191 187 197 226 220 162 160 156 169 166 160 172 178 186 218 200 178 250 274 281 287 333 328 289 273 268 252 223 240 224 228 237 228 231 234 234 232 233 245 242 237 212 188 173 165 173 166 142 127 107 99 97 92 87 102 154 159 165 191 213 201
174 187 176 175 170 198 169 219 194 120 120 94 91 78 59 37 20 10 356 10 275 288 264 326 335 327 317 296 255 220 228 224 230 237 239 247 256 257 250 242 242 244 227 194 178 169 169 155 135 113 101 83 78 66 65 77 84 90 107 156 160 194 208
131 132 141 145 149 164 179 138 132 140 116 120 124 130 133 125 145 162 173 186 172 28 5 1 354 357 345 319 274 209 242 228 224 246 303 284 263 255 248 238 230 236 214 197 183 175 161 148 127 116 100 92 82 76 87 85 117 122 120 129 149 155 163
137 131 138 136 135 141 150 158 146 141 111 107 109 117 100 101 105 87 58 61 61 41 347 352 349 350 357 330 185 182 216 218 187 79 353 329 304 278 257 235 224 218 205 197 185 174 163 140 130 124 118 115 108 87 63 14 79 115 117 133 140 145 160
146 147 147 136 138 144 142 134 119 106 95 92 106 97 107 87 90 111 110 120 113 127 285 334 341 341 350 134 152 144 137 119 103 90 39 11 356 353 331 245 217 181 147 145 145 146 135 134 122 124 124 122 116 104 102 74 56 62 78 97 121 120 122
144 87 122 161 171 173 161 145 158 159 140 143 143 155 136 113 96 121 126 110 85 80 6 293 341 1 316 181 172 145 139 120 93 89 72 35 20 23 16 50 97 100 104 89 116 126 138 130 125 129 133 128 128 127 148 132 114 49 49 93 79 45 134
339 176 212 250 221 163 170 178 169 145 144 141 150 151 141 118 97 50 54 105 92 92 50 337 352 357 93 161 152 132 128 115 102 68 81 63 37 31 28 34 58 91 99 113 108 109 110 107 110 118 119 117 120 131 164 155 127 124 68 87 340 23 65
188 186 213 210 186 189 178 117 122 126 101 109 124 118 120 125 122 102 44 96 98 107 89 360 342 1 77 135 138 131 131 123 126 111 83 89 67 44 43 53 55 74 87 87 83 79 73 84 103 103 103 105 130 127 161 140 148 131 127 91 290 319 293
198 209 208 197 168 155 164 145 131 122 120 108 105 97 89 87 97 78 39 31 63 25 21 33 16 61 116 147 149 139 139 123 127 115 102 77 81 90 72 59 58 71 76 75 76 75 76 74 82 82 84 116 135 118 116 100 104 94 73 44 353 333 311
268 267 212 144 140 176 179 144 145 135 136 133 126 120 115 115 107 88 38 29 30 7 346 1 108 56 76 130 142 130 120 123 137 123 100 89 94 88 98 95 80 76 80 80 77 76 72 70 68 72 70 87 92 93 78 74 110 42 15 10 334 320 308
277 250 247 253 195 193 195 167 158 150 143 142 144 154 155 148 132 97 61 33 24 13 358 337 33 95 88 106 106 106 115 120 118 112 125 129 133 130 122 111 106 92 85 81 78 74 68 61 62 65 70 60 52 49 43 29 25 19 351 319 300 288 292
291 282 244 186 288 241 181 176 160 162 159 153 158 158 175 155 137 148 110 54 29 19 5 360 342 79 110 110 112 116 116 119 122 123 120 127 133 121 119 107 108 101 90 86 82 78 69 61 65 57 58 60 59 50 56 44 34 6 297 309 306 297 291